Flag for Switzerland Weather past 2 weeks in Binningen, Basel-Land, Switzerland

Now
81 °F

Warm.


Feels Like: 81 °F
Forecast: 59 / 82 °F
Wind: 2 mph from Northeast

Location: Bale-Mulhouse

Current Time: Aug 1, 2014 at 6:57:43 PM

Latest Report: Aug 1, 2014 at 6:00 PM


Visibility: 28 mi

Pressure: 29.76 "Hg

Humidity: 44%

Dew point: 57 °F

Location of BinningenLocation

Historic Weather in Binningen — Graph

°F

Binningen temperature yesterday

Maximum temperature yesterday: 77 °F (at 5:00 PM)
Minimum temperature yesterday: 61 °F (at 7:00 AM)
Average temperature yesterday: 68 °F

Past Weeks' High & Low Weather Summary

 TemperatureHumidityPressure
High92 °F (Jul 18, 5:00 PM)97% (Jul 18, 4:00 AM)30.10 "Hg (Jul 18, 4:00 AM)
Low55 °F (Jul 25, 6:00 AM)19% (Jul 18, 5:00 PM)29.77 "Hg (Aug 1, 5:00 PM)
Average68 °F79%29.91 "Hg
* Reported Jul 17 5:00 PM — Aug 1 5:00 PM, Binningen, Weather by CustomWeather, © 2014

Note: Actual official high and low records may vary slightly from our data, if they occured in-between our weather recording intervals... More about our weather records

Advertising

Binningen weather history for previous 24 hours

 ConditionsComfort  
Time TempWeatherWind HumidityBarometerVisibility
5:00 PM
Aug 1
80 °FScattered clouds.3 mph52%29.77 "Hg19 mi
4:00 PM80 °FPassing clouds.6 mph49%29.77 "Hg19 mi
3:00 PM80 °FPassing clouds.5 mph49%29.79 "Hg19 mi
2:00 PM78 °FPassing clouds.3 mph53%29.80 "Hg12 mi
1:00 PM77 °FPassing clouds.2 mph58%29.83 "Hg12 mi
12:00 PM75 °FScattered clouds.1 mph57%29.84 "Hg7 mi
11:00 AM72 °FPartly sunny.5 mph64%29.86 "Hg7 mi
10:00 AM70 °FPartly sunny.3 mph72%29.87 "Hg7 mi
9:00 AM66 °FPartly sunny.3 mph86%29.88 "Hg5 mi
8:00 AM62 °FPartly sunny.3 mph97%29.89 "Hg4 mi
7:00 AM57 °FPartly sunny.2 mph97%29.90 "Hg4 mi
6:00 AM57 °FFog.No wind97%29.91 "Hg3 mi
5:00 AM56 °FFog.2 mph96%29.91 "Hg4 mi
4:00 AM58 °FCool.1 mph96%29.91 "Hg4 mi
3:00 AM58 °FCool.2 mph95%29.92 "Hg3 mi
2:00 AM60 °FCool.2 mph95%29.93 "Hg4 mi
1:00 AM62 °FCool.1 mph92%29.93 "Hg7 mi
12:00 AM64 °FPassing clouds.3 mph91%29.93 "Hg12 mi
11:00 PM
Jul 31
65 °FPassing clouds.3 mph88%29.92 "Hg19 mi
10:00 PM66 °FPassing clouds.5 mph84%29.92 "Hg19 mi
9:00 PM69 °FPartly sunny.5 mph78%29.90 "Hg19 mi
8:00 PM73 °FScattered clouds.7 mph66%29.89 "Hg25 mi
7:00 PM76 °FPassing clouds.8 mph58%29.89 "Hg25 mi
6:00 PM77 °FPassing clouds.7 mph56%29.89 "Hg25 mi
Weather by CustomWeather, © 2014

See weather overviewHow to use our weather pages